Weather History for KOLE - March, 2013

Change the Weather History Date:

Monday, March 18, 2013

  Actual Average (KBFD) Record (KBFD)
Temperature  
Mean Temperature 22 °F 32 °F  
Max Temperature 30 °F 42 °F 73 °F (2012)
Min Temperature 14 °F 22 °F -7 °F (1967)
Degree Days  
Heating Degree Days 43 27  
Month to date heating degree days 542  
Since 1 July heating degree days 6112  
Cooling Degree Days 0 0  
Month to date cooling degree days 0  
Year to date cooling degree days 0  
Moisture  
Dew Point 18 °F    
Average Humidity 81    
Maximum Humidity 93    
Minimum Humidity 55    
Precipitation  
Precipitation 0.00 in 0.11 in 1.04 in (1977)
Month to date precipitation 1.83  
Year to date precipitation 7.47  
Sea Level Pressure  
Sea Level Pressure 29.96 in    
Wind  
Wind Speed 11 mph (SE)    
Max Wind Speed 21 mph    
Max Gust Speed 33 mph    
Visibility 7 miles    
Events Snow    
T = Trace of Precipitation, MM = Missing Value Source: NWS Daily Summary

Daily Weather History Graph

Daily Weather History Graph

Search for Another Location

Airport or City:

Trip Planner

Search our weather history database for the weather conditions in past years. The results will help you decide how hot, cold, wet, or windy it might be!

Date:

Astronomy

Mar. 18, 2013 Rise Set
Actual Time 7:19 AM EDT 7:23 PM EDT
Civil Twilight 6:51 AM EDT 7:51 PM EDT
Nautical Twilight 6:19 AM EDT 8:24 PM EDT
Astronomical Twilight 5:46 AM EDT 8:57 PM EDT
Moon 11:11 AM EDT (3/18) 1:27 AM EDT (3/18)
Length of Visible Light 12h 59m
Length of Day
12h 03m
Waxing Crescent, 40% of the Moon is Illuminated
Mar 18
Waxing Crescent
Mar 19
First Quarter
Mar 27
Full
Apr 3
Last Quarter
Apr 10
New

Hourly Weather History & Observations

Time (EDT) Temp. Windchill Dew Point Humidity Pressure Visibility Wind Dir Wind Speed Gust Speed Precip Events Conditions
12:15 AM 17.6 °F 8.2 °F 12.2 °F 79% 30.18 in 10.0 mi East 6.9 mph - N/A   Clear
12:35 AM 17.6 °F 7.3 °F 12.2 °F 79% 30.17 in 10.0 mi East 8.1 mph - N/A   Clear
12:55 AM 17.6 °F 7.3 °F 12.2 °F 79% 30.18 in 10.0 mi East 8.1 mph - N/A   Clear
1:15 AM 17.6 °F 7.3 °F 10.4 °F 73% 30.17 in 10.0 mi East 8.1 mph - N/A   Clear
1:55 AM 15.8 °F 5.1 °F 10.4 °F 79% 30.17 in 10.0 mi East 8.1 mph - N/A   Clear
2:15 AM 14.0 °F 2.9 °F 10.4 °F 86% 30.16 in 10.0 mi East 8.1 mph - N/A   Clear
2:35 AM 14.0 °F 2.0 °F 10.4 °F 86% 30.16 in 10.0 mi East 9.2 mph - N/A   Clear
2:55 AM 14.0 °F 2.0 °F 10.4 °F 86% 30.15 in 10.0 mi East 9.2 mph - N/A   Clear
3:15 AM 15.8 °F 3.4 °F 12.2 °F 86% 30.15 in 10.0 mi East 10.4 mph - N/A   Clear
3:35 AM 15.8 °F 5.1 °F 12.2 °F 86% 30.15 in 10.0 mi East 8.1 mph - N/A   Clear
3:55 AM 17.6 °F 5.7 °F 14.0 °F 86% 30.14 in 10.0 mi ESE 10.4 mph - N/A   Clear
4:15 AM 17.6 °F 5.7 °F 14.0 °F 86% 30.14 in 10.0 mi ESE 10.4 mph - N/A   Clear
4:35 AM 17.6 °F 7.3 °F 14.0 °F 86% 30.15 in 10.0 mi ESE 8.1 mph - N/A   Clear
4:55 AM 17.6 °F 7.3 °F 14.0 °F 86% 30.14 in 10.0 mi ESE 8.1 mph - N/A   Clear
5:15 AM 17.6 °F 7.3 °F 14.0 °F 86% 30.14 in 10.0 mi ESE 8.1 mph - N/A   Clear
5:35 AM 17.6 °F 7.3 °F 14.0 °F 86% 30.14 in 10.0 mi ESE 8.1 mph - N/A   Clear
5:55 AM 17.6 °F 7.3 °F 14.0 °F 86% 30.13 in 10.0 mi ESE 8.1 mph - N/A   Clear
6:15 AM 17.6 °F 7.3 °F 14.0 °F 86% 30.14 in 10.0 mi ESE 8.1 mph - N/A   Clear
6:35 AM 17.6 °F 8.2 °F 14.0 °F 86% 30.13 in 10.0 mi ESE 6.9 mph - N/A   Clear
6:55 AM 17.6 °F 7.3 °F 14.0 °F 86% 30.13 in 10.0 mi East 8.1 mph - N/A   Clear
7:15 AM 17.6 °F 8.2 °F 14.0 °F 86% 30.12 in 10.0 mi ESE 6.9 mph - N/A   Clear
7:35 AM 17.6 °F 7.3 °F 14.0 °F 86% 30.11 in 10.0 mi ESE 8.1 mph - N/A   Clear
7:55 AM 17.6 °F 8.2 °F 14.0 °F 86% 30.10 in 10.0 mi ESE 6.9 mph - N/A   Clear
8:15 AM 19.4 °F 7.9 °F 14.0 °F 80% 30.10 in 10.0 mi ESE 10.4 mph - N/A   Clear
8:35 AM 19.4 °F 8.6 °F 14.0 °F 80% 30.09 in 10.0 mi ESE 9.2 mph - N/A   Clear
8:55 AM 21.2 °F 9.5 °F 14.0 °F 74% 30.07 in 10.0 mi ESE 11.5 mph 17.3 mph N/A   Clear
9:15 AM 21.2 °F 7.8 °F 14.0 °F 74% 30.07 in 10.0 mi ESE 15.0 mph 20.7 mph N/A   Clear
9:35 AM 23.0 °F 11.1 °F 14.0 °F 68% 30.05 in 10.0 mi SE 12.7 mph 19.6 mph N/A   Clear
9:55 AM 24.8 °F 12.9 °F 14.0 °F 64% 30.04 in 10.0 mi SE 13.8 mph 19.6 mph N/A   Clear
10:15 AM 24.8 °F 11.5 °F 14.0 °F 64% 30.03 in 10.0 mi SE 17.3 mph 28.8 mph N/A   Clear
10:35 AM 26.6 °F 13.4 °F 12.2 °F 55% 30.02 in 10.0 mi SE 18.4 mph 25.3 mph N/A   Clear
10:55 AM 26.6 °F 13.4 °F 14.0 °F 59% 30.02 in 10.0 mi SE 18.4 mph 25.3 mph N/A   Scattered Clouds
11:15 AM 26.6 °F 14.7 °F 12.2 °F 55% 30.01 in 10.0 mi SE 15.0 mph 25.3 mph N/A   Mostly Cloudy
11:35 AM 26.6 °F 15.2 °F 14.0 °F 59% 30.00 in 10.0 mi SE 13.8 mph 21.9 mph N/A   Overcast
11:55 AM 28.4 °F 18.5 °F 14.0 °F 55% 29.99 in 10.0 mi SE 11.5 mph 23.0 mph N/A   Overcast
12:15 PM 28.4 °F 17.5 °F 14.0 °F 55% 29.97 in 10.0 mi SE 13.8 mph 24.2 mph N/A   Overcast
12:35 PM 26.6 °F 13.1 °F 17.6 °F 69% 29.97 in 7.0 mi SE 19.6 mph 27.6 mph N/A Snow Light Snow
12:55 PM 26.6 °F 13.4 °F 21.2 °F 80% 29.96 in 1.5 mi SE 18.4 mph 24.2 mph N/A Snow Light Snow
1:15 PM 26.6 °F 14.3 °F 21.2 °F 80% 29.95 in 1.0 mi SE 16.1 mph 21.9 mph N/A Snow Light Snow
1:35 PM 24.8 °F 14.0 °F 23.0 °F 93% 29.93 in 0.5 mi SE 11.5 mph - N/A Snow Snow
1:55 PM 24.8 °F 13.4 °F 23.0 °F 93% 29.92 in 0.5 mi SE 12.7 mph 25.3 mph N/A Snow Light Snow
2:15 PM 24.8 °F 11.9 °F 21.2 °F 86% 29.92 in 0.8 mi SE 16.1 mph 21.9 mph N/A Snow Light Snow
2:35 PM 23.0 °F 10.1 °F 21.2 °F 93% 29.90 in 0.5 mi SE 15.0 mph 21.9 mph N/A Snow Light Snow
2:55 PM 24.8 °F 12.4 °F 21.2 °F 86% 29.89 in 1.0 mi SE 15.0 mph - N/A Snow Light Snow
3:15 PM 24.8 °F 13.4 °F 21.2 °F 86% 29.88 in 0.8 mi SE 12.7 mph 20.7 mph N/A Snow Light Snow
3:35 PM 24.8 °F 13.4 °F 21.2 °F 86% 29.87 in 0.5 mi SE 12.7 mph 21.9 mph N/A Snow Light Snow
3:55 PM 26.6 °F 14.3 °F 21.2 °F 80% 29.86 in 2.0 mi SE 16.1 mph 20.7 mph N/A Snow Light Snow
4:15 PM 26.6 °F 14.3 °F 21.2 °F 80% 29.85 in 2.0 mi SE 16.1 mph 23.0 mph N/A Snow Light Snow
4:35 PM 26.6 °F 14.7 °F 23.0 °F 86% 29.85 in 2.0 mi SSE 15.0 mph 23.0 mph N/A Snow Light Snow
4:55 PM 26.6 °F 14.7 °F 21.2 °F 80% 29.83 in 3.0 mi SE 15.0 mph 20.7 mph N/A   Overcast
5:15 PM 26.6 °F 15.2 °F 23.0 °F 86% 29.83 in 2.5 mi SE 13.8 mph 24.2 mph N/A Snow Light Snow
5:35 PM 26.6 °F 16.2 °F 21.2 °F 80% 29.81 in 5.0 mi SE 11.5 mph 25.3 mph N/A   Overcast
5:55 PM 26.6 °F 13.4 °F 21.2 °F 80% 29.80 in 5.0 mi SSE 18.4 mph 25.3 mph N/A   Overcast
6:15 PM 26.6 °F 16.8 °F 21.2 °F 80% 29.79 in 7.0 mi SSE 10.4 mph 24.2 mph N/A Snow Light Snow
6:35 PM 26.6 °F 13.8 °F 21.2 °F 80% 29.79 in 7.0 mi SSE 17.3 mph 21.9 mph N/A   Overcast
6:55 PM 26.6 °F 16.2 °F 23.0 °F 86% 29.77 in 4.0 mi SSE 11.5 mph 25.3 mph N/A   Overcast
7:15 PM 26.6 °F 14.7 °F 23.0 °F 86% 29.76 in 4.0 mi SSE 15.0 mph 25.3 mph N/A Snow Light Snow
7:35 PM 26.6 °F 15.2 °F 23.0 °F 86% 29.76 in 10.0 mi SSE 13.8 mph 23.0 mph N/A Snow Light Snow
7:55 PM 28.4 °F 15.1 °F 23.0 °F 80% 29.75 in 5.0 mi SSE 20.7 mph 32.2 mph N/A Snow Light Snow
8:35 PM 28.4 °F 16.6 °F 24.8 °F 86% 29.74 in 7.0 mi SSE 16.1 mph 26.5 mph N/A Snow Light Snow
8:55 PM 28.4 °F 16.6 °F 24.8 °F 86% 29.74 in 5.0 mi South 16.1 mph 26.5 mph N/A Snow Light Snow
9:15 PM 28.4 °F 15.1 °F 26.6 °F 93% 29.73 in 5.0 mi South 20.7 mph 33.4 mph N/A Snow Light Snow
9:35 PM 28.4 °F 15.8 °F 26.6 °F 93% 29.71 in 5.0 mi South 18.4 mph 31.1 mph N/A Snow Light Snow
9:55 PM 30.2 °F 18.1 °F 26.6 °F 86% 29.71 in 7.0 mi South 18.4 mph 28.8 mph N/A   Overcast
10:15 PM 30.2 °F 19.3 °F 28.4 °F 93% 29.71 in 4.0 mi South 15.0 mph 29.9 mph N/A   Overcast
10:35 PM 30.2 °F 20.2 °F 28.4 °F 93% 29.69 in 5.0 mi South 12.7 mph 20.7 mph N/A Snow Light Snow
10:55 PM 30.2 °F 21.3 °F 28.4 °F 93% 29.69 in 10.0 mi South 10.4 mph 18.4 mph N/A   Overcast
11:15 PM 30.2 °F 19.8 °F 28.4 °F 93% 29.68 in 10.0 mi South 13.8 mph 18.4 mph N/A   Overcast
11:55 PM 30.2 °F 21.3 °F 28.4 °F 93% 29.67 in 7.0 mi South 10.4 mph 16.1 mph N/A   Overcast